Location: Newark
(42.5441°N, 12.7211°E)
Time: 13:46:05
(UTC+00:00)

Hubble Space Telescope - Visible Passes

Search period start: 16 December 2019 00:00
Search period end: 26 December 2019 00:00
Orbit: 536 x 540 km, 28.5° (Epoch: 15 December)

Date Brightness Start Highest point End Pass type
(mag) Time Alt. Az. Time Alt. Az. Time Alt. Az.
16 Dec 3.7 04:58:17 10° S 04:58:21 10° S 04:58:26 10° S visible
17 Dec 3.5 04:46:37 10° S 04:47:36 11° S 04:48:35 10° SSE visible
18 Dec 3.4 04:35:35 10° SSW 04:36:51 11° S 04:38:07 10° SSE visible
19 Dec 3.3 04:25:04 11° SSW 04:26:06 11° S 04:27:28 10° SSE visible
20 Dec 3.4 04:15:09 11° S 04:15:21 11° S 04:16:42 10° SSE visible
21 Dec 3.5 04:05:12 11° S 04:05:12 11° S 04:05:49 10° SSE visible
